Time[GMT],temperature[C](20m),salinity[psu](20m),sigma_t[kg/m^3](20m),conductivity[msiemens/cm](20m)
2005-05-21 00:00,5.09,31.248,24.692,30.283
2005-05-21 01:00,5.11,31.350,24.772,30.384
2005-05-21 02:00,4.89,31.301,24.756,30.163
2005-05-21 03:00,4.88,31.308,24.762,30.159
2005-05-21 04:00,4.92,31.194,24.667,30.095
2005-05-21 05:00,4.99,31.302,24.746,30.243
2005-05-21 06:00,5.12,31.253,24.693,30.308
2005-05-21 07:00,5.30,31.143,24.586,30.360
2005-05-21 08:00,5.28,31.202,24.635,30.394
2005-05-21 09:00,5.05,31.278,24.720,30.279
2005-05-21 10:00,5.06,31.262,24.707,30.268
2005-05-21 11:00,5.23,31.204,24.642,30.359
2005-05-21 12:00,5.21,31.199,24.640,30.340
2005-05-21 13:00,5.72,31.135,24.533,30.696
2005-05-21 14:00,5.13,31.285,24.718,30.343
2005-05-21 15:00,5.12,31.274,24.710,30.325
2005-05-21 16:00,5.89,31.100,24.485,30.810
2005-05-21 17:00,5.32,31.190,24.621,30.421
2005-05-21 18:00,6.33,31.023,24.372,31.101
2005-05-21 19:00,6.07,31.036,24.413,30.900
2005-05-21 20:00,5.58,31.104,24.525,30.554
2005-05-21 21:00,5.52,31.121,24.544,30.525
2005-05-21 22:00,5.45,31.132,24.561,30.472
2005-05-21 23:00,5.55,31.108,24.531,30.539
2005-05-22 00:00,5.26,31.214,24.647,30.390
2005-05-22 01:00,5.33,31.189,24.620,30.425
2005-05-22 02:00,5.80,31.019,24.432,30.659
2005-05-22 03:00,5.65,31.089,24.505,30.600
2005-05-22 04:00,5.74,31.033,24.449,30.629
2005-05-22 05:00,5.60,31.065,24.491,30.538
2005-05-22 06:00,5.52,31.044,24.484,30.455
2005-05-22 07:00,5.47,31.063,24.504,30.430
2005-05-22 08:00,5.35,31.102,24.548,30.363
2005-05-22 09:00,5.24,31.146,24.596,30.311
2005-05-22 10:00,5.12,31.181,24.635,30.250
2005-05-22 11:00,5.09,31.218,24.669,30.252
2005-05-22 12:00,5.03,31.263,24.710,30.249
2005-05-22 13:00,5.03,31.287,24.730,30.267
2005-05-22 14:00,5.03,31.306,24.744,30.285
2005-05-22 15:00,5.02,31.297,24.739,30.264
2005-05-22 16:00,5.03,31.273,24.719,30.251
2005-05-22 17:00,5.04,31.196,24.656,30.194
2005-05-22 18:00,5.05,31.152,24.621,30.166
2005-05-22 19:00,5.01,31.183,24.649,30.163
2005-05-22 20:00,4.98,31.185,24.654,30.132
2005-05-22 21:00,4.99,31.198,24.663,30.159
2005-05-22 22:00,5.02,31.269,24.717,30.244
2005-05-22 23:00,5.02,31.264,24.712,30.239
2005-05-23 00:00,5.00,31.278,24.726,30.233
2005-05-23 01:00,4.98,31.297,24.743,30.231
2005-05-23 02:00,4.97,31.318,24.761,30.240
2005-05-23 03:00,4.96,31.301,24.748,30.223
2005-05-23 04:00,4.99,31.268,24.719,30.216
2005-05-23 05:00,4.97,31.274,24.726,30.206
2005-05-23 06:00,5.03,31.274,24.719,30.255
2005-05-23 07:00,4.99,31.323,24.763,30.263
2005-05-23 08:00,4.98,31.312,24.754,30.248
2005-05-23 09:00,5.02,31.229,24.684,30.210
2005-05-23 10:00,4.99,31.303,24.747,30.246
2005-05-23 11:00,4.98,31.336,24.774,30.265
2005-05-23 12:00,4.99,31.327,24.766,30.264
2005-05-23 13:00,4.97,31.415,24.838,30.327
2005-05-23 14:00,4.96,31.429,24.849,30.336
2005-05-23 15:00,4.97,31.427,24.847,30.338
2005-05-23 16:00,4.97,31.419,24.841,30.334
2005-05-23 17:00,4.97,31.408,24.832,30.326
2005-05-23 18:00,4.99,31.381,24.809,30.312
2005-05-23 19:00,4.97,31.422,24.843,30.333
2005-05-23 20:00,4.97,31.519,24.920,30.415
2005-05-23 21:00,4.99,31.428,24.846,30.352
2005-05-23 22:00,4.98,31.458,24.871,30.371
2005-05-23 23:00,4.97,31.466,24.877,30.377
2005-05-24 00:00,4.98,31.449,24.863,30.366
2005-05-24 01:00,4.98,31.438,24.855,30.358
2005-05-24 02:00,4.98,31.427,24.846,30.347
2005-05-24 03:00,4.98,31.401,24.825,30.326
2005-05-24 04:00,4.99,31.373,24.802,30.310
2005-05-24 05:00,5.03,31.299,24.739,30.279
2005-05-24 06:00,5.00,31.386,24.811,30.325
2005-05-24 07:00,5.05,31.249,24.697,30.248
2005-05-24 08:00,5.06,31.238,24.688,30.244
2005-05-24 09:00,5.08,31.221,24.672,30.250
2005-05-24 10:00,5.05,31.301,24.738,30.295
2005-05-24 11:00,5.09,31.236,24.683,30.267
2005-05-24 12:00,5.00,31.453,24.864,30.386
2005-05-24 13:00,4.98,31.609,24.990,30.505
2005-05-24 14:00,4.97,31.597,24.982,30.486
2005-05-24 15:00,4.95,31.728,25.087,30.583
2005-05-24 16:00,4.97,31.710,25.072,30.583
2005-05-24 17:00,4.97,31.693,25.058,30.568
2005-05-24 18:00,4.99,31.626,25.003,30.526
2005-05-24 19:00,4.98,31.546,24.940,30.452
2005-05-24 20:00,4.99,31.485,24.890,30.409
2005-05-24 21:00,5.02,31.403,24.823,30.360
2005-05-24 22:00,5.02,31.383,24.806,30.344
2005-05-24 23:00,5.03,31.375,24.799,30.341
2005-05-25 00:00,5.02,31.389,24.812,30.344
2005-05-25 01:00,5.01,31.416,24.834,30.359
2005-05-25 02:00,5.01,31.409,24.828,30.358
2005-05-25 03:00,5.02,31.392,24.814,30.351
2005-05-25 04:00,5.03,31.408,24.825,30.375
2005-05-25 05:00,5.03,31.431,24.844,30.393
2005-05-25 06:00,5.02,31.465,24.872,30.412
2005-05-25 07:00,4.96,31.663,25.035,30.535
2005-05-25 08:00,4.92,31.757,25.114,30.587
2005-05-25 09:00,5.04,31.335,24.766,30.315
2005-05-25 10:00,5.05,31.286,24.726,30.284
2005-05-25 11:00,5.05,31.289,24.729,30.285
2005-05-25 12:00,5.00,31.455,24.867,30.386
2005-05-25 13:00,4.92,31.744,25.104,30.571
2005-05-25 14:00,4.91,31.768,25.124,30.587
2005-05-25 15:00,4.91,31.785,25.137,30.597
2005-05-25 16:00,4.89,31.816,25.163,30.613
2005-05-25 17:00,4.87,31.837,25.183,30.611
2005-05-25 18:00,4.88,31.809,25.159,30.601
2005-05-25 19:00,4.98,31.578,24.966,30.481
2005-05-25 20:00,5.10,31.156,24.618,30.211
2005-05-25 21:00,5.10,31.136,24.603,30.193
2005-05-25 22:00,5.11,31.139,24.604,30.200
2005-05-25 23:00,5.09,31.181,24.640,30.219
2005-05-26 00:00,5.09,31.139,24.606,30.186
2005-05-26 01:00,5.06,31.245,24.693,30.256
2005-05-26 02:00,5.09,31.194,24.650,30.231
2005-05-26 03:00,5.09,31.232,24.680,30.264
2005-05-26 04:00,5.05,31.392,24.811,30.376
2005-05-26 05:00,5.01,31.526,24.921,30.459
2005-05-26 06:00,5.00,31.535,24.929,30.461
2005-05-26 07:00,5.02,31.492,24.893,30.437
2005-05-26 08:00,5.02,31.496,24.897,30.439
2005-05-26 09:00,5.02,31.492,24.892,30.440
2005-05-26 10:00,5.05,31.381,24.801,30.366
2005-05-26 11:00,5.08,31.254,24.699,30.276
2005-05-26 12:00,5.09,31.185,24.643,30.226
2005-05-26 13:00,5.09,31.175,24.635,30.219
2005-05-26 14:00,5.07,31.247,24.694,30.261
2005-05-26 15:00,5.08,31.220,24.671,30.248
2005-05-26 16:00,5.08,31.224,24.674,30.255
2005-05-26 17:00,5.05,31.345,24.773,30.336
2005-05-26 18:00,5.03,31.404,24.821,30.372
2005-05-26 19:00,5.04,31.344,24.774,30.323
2005-05-26 20:00,5.11,31.132,24.599,30.192
2005-05-26 21:00,5.11,31.068,24.547,30.143
2005-05-26 22:00,5.16,30.954,24.453,30.078
2005-05-26 23:00,5.14,31.038,24.521,30.136
2005-05-27 00:00,5.10,31.282,24.718,30.318
2005-05-27 01:00,5.03,31.459,24.866,30.420
2005-05-27 02:00,5.00,31.497,24.899,30.428
2005-05-27 03:00,5.00,31.519,24.917,30.442
2005-05-27 04:00,4.93,31.640,25.020,30.495
2005-05-27 05:00,4.94,31.638,25.017,30.498
2005-05-27 06:00,4.99,31.526,24.924,30.438
2005-05-27 07:00,5.03,31.410,24.827,30.376
2005-05-27 08:00,5.08,31.247,24.693,30.269
2005-05-27 09:00,5.11,31.180,24.637,30.238
2005-05-27 10:00,5.10,31.117,24.587,30.177
2005-05-27 11:00,5.12,31.043,24.527,30.125
2005-05-27 12:00,5.11,31.102,24.575,30.167
2005-05-27 13:00,5.09,31.173,24.634,30.214
2005-05-27 14:00,5.10,31.254,24.696,30.297
2005-05-27 15:00,5.05,31.322,24.756,30.310
2005-05-27 16:00,5.03,31.384,24.807,30.347
2005-05-27 17:00,5.03,31.379,24.802,30.348
2005-05-27 18:00,5.00,31.452,24.864,30.384
2005-05-27 19:00,4.99,31.502,24.905,30.417
2005-05-27 20:00,5.00,31.480,24.886,30.408
2005-05-27 21:00,5.01,31.450,24.861,30.394
2005-05-27 22:00,4.97,31.523,24.923,30.426
2005-05-27 23:00,4.94,31.605,24.992,30.467
2005-05-28 00:00,5.26,31.387,24.784,30.545
2005-05-28 01:00,5.20,31.359,24.768,30.470
2005-05-28 02:00,5.14,31.410,24.815,30.468
2005-05-28 03:00,5.18,31.376,24.784,30.471
2005-05-28 04:00,4.98,31.599,24.983,30.496
2005-05-28 05:00,4.96,31.617,24.999,30.494
2005-05-28 06:00,5.08,31.561,24.941,30.545
2005-05-28 07:00,4.94,31.640,25.018,30.503
2005-05-28 08:00,5.09,31.564,24.943,30.555
2005-05-28 09:00,5.17,31.372,24.782,30.454
2005-05-28 10:00,5.11,31.357,24.776,30.397
2005-05-28 11:00,5.14,31.289,24.719,30.360
2005-05-28 12:00,5.12,31.272,24.708,30.328
2005-05-28 13:00,5.16,31.275,24.705,30.366
2005-05-28 14:00,5.16,31.298,24.725,30.378
2005-05-28 15:00,5.14,31.301,24.729,30.365
2005-05-28 16:00,5.14,31.322,24.745,30.387
2005-05-28 17:00,5.10,31.387,24.801,30.410
2005-05-28 18:00,5.08,31.399,24.813,30.405
2005-05-28 19:00,5.09,31.386,24.801,30.406
2005-05-28 20:00,5.03,31.434,24.846,30.398
2005-05-28 21:00,5.03,31.436,24.847,30.396
2005-05-28 22:00,5.06,31.464,24.867,30.443
2005-05-28 23:00,5.18,31.467,24.856,30.546
2005-05-29 00:00,5.20,31.488,24.871,30.581
2005-05-29 01:00,5.18,31.612,24.970,30.679
2005-05-29 02:00,5.01,31.633,25.007,30.548
2005-05-29 03:00,4.99,31.642,25.015,30.543
2005-05-29 04:00,5.03,31.639,25.008,30.575
2005-05-29 05:00,5.01,31.670,25.036,30.583
2005-05-29 06:00,5.00,31.646,25.017,30.557
2005-05-29 07:00,5.03,31.644,25.012,30.579
2005-05-29 08:00,4.97,31.684,25.051,30.560
2005-05-29 09:00,4.92,31.685,25.057,30.521
2005-05-29 10:00,4.99,31.609,24.989,30.514
2005-05-29 11:00,5.08,31.511,24.902,30.505
2005-05-29 12:00,5.04,31.438,24.848,30.410
2005-05-29 13:00,5.05,31.392,24.811,30.370
2005-05-29 14:00,5.05,31.345,24.773,30.336
2005-05-29 15:00,5.05,31.352,24.779,30.339
2005-05-29 16:00,5.06,31.346,24.774,30.340
2005-05-29 17:00,5.04,31.417,24.831,30.385
2005-05-29 18:00,5.04,31.425,24.839,30.392
2005-05-29 19:00,5.04,31.419,24.833,30.393
2005-05-29 20:00,5.04,31.434,24.845,30.400
2005-05-29 21:00,5.05,31.402,24.818,30.381
2005-05-29 22:00,5.09,31.331,24.758,30.357
2005-05-29 23:00,5.05,31.373,24.796,30.357
2005-05-30 00:00,5.11,31.247,24.690,30.296
2005-05-30 01:00,5.14,31.094,24.565,30.185
2005-05-30 02:00,5.21,31.284,24.708,30.414
2005-05-30 03:00,5.19,31.340,24.754,30.447
2005-05-30 04:00,5.14,31.378,24.789,30.440
2005-05-30 05:00,5.20,31.379,24.784,30.482
2005-05-30 06:00,5.16,31.432,24.831,30.497
2005-05-30 07:00,5.04,31.488,24.888,30.450
2005-05-30 08:00,5.02,31.542,24.932,30.483
2005-05-30 09:00,5.11,31.456,24.855,30.479
2005-05-30 10:00,5.03,31.526,24.919,30.476
2005-05-30 11:00,5.03,31.535,24.926,30.484
2005-05-30 12:00,5.06,31.529,24.918,30.503
2005-05-30 13:00,5.02,31.553,24.941,30.493
2005-05-30 14:00,4.99,31.572,24.959,30.485
2005-05-30 15:00,4.98,31.571,24.960,30.473
2005-05-30 16:00,5.33,31.502,24.867,30.706
2005-05-30 17:00,5.30,31.521,24.886,30.690
2005-05-30 18:00,5.15,31.516,24.898,30.563
2005-05-30 19:00,5.19,31.538,24.912,30.615
2005-05-30 20:00,5.03,31.618,24.992,30.558
2005-05-30 21:00,5.32,31.611,24.954,30.792
2005-05-30 22:00,5.54,31.637,24.950,30.999
2005-05-30 23:00,5.36,31.638,24.971,30.846
2005-05-31 00:00,5.39,31.594,24.933,30.833
2005-05-31 01:00,5.30,31.569,24.923,30.741
2005-05-31 02:00,5.18,31.514,24.893,30.587
2005-05-31 03:00,5.10,31.502,24.893,30.509
2005-05-31 04:00,5.23,31.409,24.804,30.539
2005-05-31 05:00,5.15,31.426,24.827,30.487
2005-05-31 06:00,5.12,31.434,24.836,30.473
2005-05-31 07:00,5.16,31.492,24.877,30.557
2005-05-31 08:00,5.53,31.557,24.888,30.915
2005-05-31 09:00,5.49,31.601,24.927,30.927
2005-05-31 10:00,5.23,31.566,24.929,30.673
2005-05-31 11:00,5.03,31.491,24.892,30.441
2005-05-31 12:00,5.03,31.427,24.841,30.385
2005-05-31 13:00,5.02,31.436,24.849,30.387
2005-05-31 14:00,5.05,31.360,24.786,30.342
2005-05-31 15:00,5.05,31.359,24.784,30.346
2005-05-31 16:00,5.09,31.306,24.739,30.328
2005-05-31 17:00,5.14,31.348,24.766,30.409
2005-05-31 18:00,5.09,31.311,24.743,30.335
2005-05-31 19:00,5.08,31.317,24.748,30.336
2005-05-31 20:00,5.09,31.324,24.752,30.352
2005-05-31 21:00,5.11,31.335,24.760,30.370
2005-05-31 22:00,5.10,31.343,24.767,30.370
2005-05-31 23:00,5.03,31.392,24.812,30.359
2005-06-01 00:00,5.03,31.452,24.861,30.407
2005-06-01 01:00,5.13,31.389,24.799,30.441
2005-06-01 02:00,5.35,31.410,24.792,30.641
2005-06-01 03:00,5.07,31.314,24.747,30.319
2005-06-01 04:00,5.07,31.267,24.709,30.283
2005-06-01 05:00,5.09,31.253,24.696,30.289
2005-06-01 06:00,5.06,31.271,24.713,30.280
2005-06-01 07:00,5.05,31.323,24.756,30.313
2005-06-01 08:00,5.04,31.355,24.782,30.337
2005-06-01 09:00,5.03,31.415,24.830,30.380
2005-06-01 10:00,5.01,31.524,24.920,30.454
2005-06-01 11:00,4.99,31.594,24.978,30.499
2005-06-01 12:00,5.52,31.613,24.933,30.957
2005-06-01 13:00,5.17,31.435,24.832,30.510
2005-06-01 14:00,5.05,31.315,24.749,30.309
2005-06-01 15:00,5.13,31.198,24.648,30.270
2005-06-01 16:00,5.14,31.182,24.634,30.267
2005-06-01 17:00,5.16,31.159,24.615,30.258
2005-06-01 18:00,5.12,31.173,24.630,30.240
2005-06-01 19:00,5.22,31.161,24.609,30.315
2005-06-01 20:00,5.14,31.220,24.665,30.293
2005-06-01 21:00,5.11,31.264,24.702,30.312
2005-06-01 22:00,5.07,31.320,24.752,30.324
2005-06-01 23:00,5.13,31.271,24.707,30.332
2005-06-02 00:00,5.11,31.255,24.696,30.303
2005-06-02 01:00,5.10,31.243,24.687,30.283
2005-06-02 02:00,5.09,31.165,24.627,30.210
2005-06-02 03:00,5.26,31.155,24.601,30.335
2005-06-02 04:00,5.12,31.157,24.617,30.229
2005-06-02 05:00,5.19,31.081,24.549,30.220
2005-06-02 06:00,5.23,31.086,24.549,30.250
2005-06-02 07:00,5.28,31.115,24.567,30.316
2005-06-02 08:00,5.46,31.200,24.614,30.543
2005-06-02 09:00,5.16,31.075,24.548,30.190
2005-06-02 10:00,5.57,31.298,24.678,30.723
2005-06-02 11:00,5.63,31.319,24.689,30.788
2005-06-02 12:00,5.66,31.369,24.725,30.859
2005-06-02 13:00,5.37,31.405,24.786,30.650
2005-06-02 14:00,5.51,31.286,24.676,30.662
2005-06-02 15:00,5.26,31.187,24.626,30.369
2005-06-02 16:00,5.12,31.139,24.603,30.212
2005-06-02 17:00,5.13,31.125,24.591,30.205
2005-06-02 18:00,5.11,31.167,24.626,30.226
2005-06-02 19:00,5.13,31.195,24.646,30.264
2005-06-02 20:00,5.32,31.192,24.623,30.418
2005-06-02 21:00,5.36,31.341,24.736,30.589
2005-06-02 22:00,5.27,31.404,24.797,30.563
2005-06-02 23:00,5.09,31.456,24.858,30.462
2005-06-03 00:00,5.08,31.449,24.853,30.451
2005-06-03 01:00,5.29,31.375,24.771,30.561
2005-06-03 02:00,5.45,31.288,24.685,30.609
2005-06-03 03:00,5.41,31.277,24.680,30.568
2005-06-03 04:00,5.36,31.338,24.734,30.580
2005-06-03 05:00,5.31,31.395,24.785,30.591
2005-06-03 06:00,5.26,31.343,24.749,30.500
2005-06-03 07:00,5.17,31.417,24.817,30.495
2005-06-03 08:00,5.22,31.340,24.751,30.468
2005-06-03 09:00,5.22,31.344,24.755,30.470
2005-06-03 10:00,5.16,31.431,24.829,30.499
2005-06-03 11:00,5.11,31.466,24.863,30.486
2005-06-03 12:00,5.22,31.415,24.811,30.534
2005-06-03 13:00,5.22,31.396,24.796,30.515
2005-06-03 14:00,5.10,31.515,24.903,30.522
2005-06-03 15:00,5.22,31.405,24.802,30.529
2005-06-03 16:00,5.17,31.444,24.839,30.518
2005-06-03 17:00,5.25,31.301,24.717,30.458
2005-06-03 18:00,5.21,31.379,24.782,30.498
2005-06-03 19:00,5.22,31.397,24.795,30.521
2005-06-03 20:00,5.22,31.322,24.737,30.455
2005-06-03 21:00,5.23,31.370,24.773,30.505
2005-06-03 22:00,5.20,31.396,24.797,30.504
2005-06-03 23:00,5.21,31.437,24.828,30.548
2005-06-04 00:00,5.17,31.462,24.853,30.533
2005-06-04 01:00,5.52,31.390,24.757,30.762
2005-06-04 02:00,5.50,31.413,24.778,30.763
2005-06-04 03:00,5.55,31.321,24.699,30.728
2005-06-04 04:00,5.89,31.042,24.440,30.752
2005-06-04 05:00,5.32,31.313,24.718,30.527
2005-06-04 06:00,5.78,31.043,24.454,30.666
2005-06-04 07:00,5.47,31.260,24.660,30.604
2005-06-04 08:00,5.21,31.358,24.767,30.473
2005-06-04 09:00,5.34,31.329,24.729,30.560
2005-06-04 10:00,5.38,31.327,24.724,30.587
2005-06-04 11:00,5.19,31.389,24.793,30.490
2005-06-04 12:00,5.47,31.251,24.653,30.600
2005-06-04 13:00,5.35,31.366,24.758,30.596
2005-06-04 14:00,5.88,30.949,24.367,30.665
2005-06-04 15:00,5.28,31.397,24.789,30.573
2005-06-04 16:00,5.47,31.278,24.674,30.619
2005-06-04 17:00,5.24,31.460,24.844,30.589
2005-06-04 18:00,5.79,31.019,24.433,30.656
2005-06-04 19:00,5.19,31.459,24.849,30.549
2005-06-04 20:00,5.25,31.449,24.834,30.592
2005-06-04 21:00,5.77,31.179,24.561,30.781
2005-06-04 22:00,5.79,31.186,24.565,30.800
2005-06-04 23:00,5.51,31.414,24.777,30.770
2005-06-05 00:00,5.47,31.431,24.795,30.756
2005-06-05 01:00,5.87,31.118,24.501,30.809
2005-06-05 02:00,5.89,31.099,24.485,30.808
2005-06-05 03:00,5.89,31.096,24.482,30.805
2005-06-05 04:00,5.74,31.215,24.593,30.790
2005-06-05 05:00,5.72,31.217,24.597,30.774
2005-06-05 06:00,5.24,31.585,24.942,30.703
2005-06-05 07:00,5.66,31.280,24.654,30.781
2005-06-05 08:00,5.52,31.428,24.787,30.796
2005-06-05 09:00,5.46,31.468,24.826,30.778
2005-06-05 10:00,5.40,31.514,24.869,30.769
2005-06-05 11:00,5.26,31.630,24.976,30.759
2005-06-05 12:00,5.19,31.674,25.018,30.739
2005-06-05 13:00,5.50,31.423,24.785,30.776
2005-06-05 14:00,6.23,30.828,24.230,30.846
2005-06-05 15:00,5.54,31.367,24.737,30.757
2005-06-05 16:00,5.45,31.466,24.824,30.774
2005-06-05 17:00,5.61,31.171,24.574,30.639
2005-06-05 18:00,5.80,31.027,24.438,30.669
2005-06-05 19:00,5.44,31.398,24.773,30.698
2005-06-05 20:00,5.31,31.476,24.849,30.662
2005-06-05 21:00,5.27,31.528,24.895,30.675
2005-06-05 22:00,5.23,31.559,24.924,30.668
2005-06-05 23:00,5.79,31.226,24.596,30.840
2005-06-06 00:00,5.51,31.425,24.786,30.788
2005-06-06 01:00,5.69,31.331,24.691,30.849
2005-06-06 02:00,5.52,31.418,24.780,30.785
2005-06-06 03:00,5.21,31.604,24.961,30.693
2005-06-06 04:00,5.44,31.378,24.756,30.687
2005-06-06 05:00,5.42,31.306,24.701,30.606
2005-06-06 06:00,5.31,31.421,24.805,30.617
2005-06-06 07:00,5.39,31.455,24.823,30.715
2005-06-06 08:00,5.40,31.477,24.839,30.742
2005-06-06 09:00,5.50,31.360,24.736,30.716
2005-06-06 10:00,5.49,31.245,24.646,30.612
2005-06-06 11:00,5.39,31.465,24.831,30.723
2005-06-06 12:00,5.38,31.593,24.934,30.822
2005-06-06 13:00,5.24,31.696,25.030,30.799
2005-06-06 14:00,5.66,31.620,24.923,31.080
2005-06-06 15:00,5.79,31.654,24.934,31.223
2005-06-06 16:00,5.41,31.765,25.066,30.999
2005-06-06 17:00,5.93,31.650,24.915,31.331
2005-06-06 18:00,6.00,31.624,24.886,31.366
2005-06-06 19:00,6.04,31.515,24.795,31.305
2005-06-06 20:00,6.01,31.588,24.856,31.346
2005-06-06 21:00,5.88,31.582,24.866,31.233
2005-06-06 22:00,5.65,31.646,24.945,31.097
2005-06-06 23:00,5.91,31.592,24.872,31.265
2005-06-07 00:00,5.63,31.656,24.955,31.087
2005-06-07 01:00,5.71,31.697,24.978,31.188
2005-06-07 02:00,5.96,31.687,24.941,31.392
2005-06-07 03:00,5.91,31.694,24.952,31.358
2005-06-07 04:00,5.74,31.689,24.968,31.213
2005-06-07 05:00,5.62,31.716,25.003,31.136
2005-06-07 06:00,5.79,31.702,24.973,31.259
2005-06-07 07:00,5.74,31.670,24.953,31.190
2005-06-07 08:00,5.97,31.639,24.902,31.353
2005-06-07 09:00,5.89,31.632,24.905,31.284
2005-06-07 10:00,5.54,31.644,24.955,31.005
2005-06-07 11:00,5.41,31.670,24.991,30.916
2005-06-07 12:00,5.41,31.668,24.989,30.914
2005-06-07 13:00,5.38,31.690,25.010,30.911
2005-06-07 14:00,5.41,31.716,25.028,30.953
2005-06-07 15:00,5.38,31.727,25.039,30.943
2005-06-07 16:00,5.54,31.713,25.011,31.063
2005-06-07 17:00,5.56,31.728,25.020,31.093
2005-06-07 18:00,5.59,31.725,25.014,31.115
2005-06-07 19:00,5.54,31.728,25.022,31.076
2005-06-07 20:00,5.55,31.718,25.014,31.073
2005-06-07 21:00,5.47,31.713,25.018,31.005
2005-06-07 22:00,5.55,31.699,24.998,31.059
2005-06-07 23:00,5.38,31.645,24.974,30.873
2005-06-08 00:00,5.44,31.662,24.981,30.938
2005-06-08 01:00,5.51,31.686,24.993,31.012
2005-06-08 02:00,5.60,31.640,24.946,31.048
2005-06-08 03:00,5.57,31.629,24.940,31.012
2005-06-08 04:00,5.44,31.670,24.988,30.941
2005-06-08 05:00,5.46,31.663,24.980,30.952
2005-06-08 06:00,5.48,31.660,24.975,30.963
2005-06-08 07:00,5.58,31.646,24.952,31.040
2005-06-08 08:00,5.56,31.646,24.955,31.021
2005-06-08 09:00,5.44,31.583,24.919,30.867
2005-06-08 10:00,5.38,31.572,24.917,30.803
2005-06-08 11:00,5.58,31.575,24.896,30.978
2005-06-08 12:00,5.29,31.552,24.911,30.716
2005-06-08 13:00,5.37,31.602,24.942,30.822
2005-06-08 14:00,5.29,31.626,24.970,30.775
2005-06-08 15:00,5.25,31.649,24.993,30.764
2005-06-08 16:00,5.63,31.670,24.966,31.097
2005-06-08 17:00,5.64,31.653,24.951,31.094
2005-06-08 18:00,5.56,31.673,24.976,31.048
2005-06-08 19:00,5.79,31.620,24.908,31.187
2005-06-08 20:00,5.81,31.601,24.890,31.193
2005-06-08 21:00,5.60,31.645,24.949,31.057
2005-06-08 22:00,5.51,31.677,24.985,31.003
2005-06-08 23:00,5.50,31.670,24.981,30.989
2005-06-09 00:00,5.46,31.652,24.970,30.944
2005-06-09 01:00,5.43,31.667,24.986,30.929
2005-06-09 02:00,5.41,31.681,24.999,30.928
2005-06-09 03:00,5.43,31.681,24.997,30.944
2005-06-09 04:00,5.43,31.670,24.989,30.934
2005-06-09 05:00,5.45,31.670,24.987,30.947
2005-06-09 06:00,5.42,31.669,24.989,30.927
2005-06-09 07:00,5.40,31.660,24.984,30.900
2005-06-09 08:00,5.37,31.653,24.982,30.867
2005-06-09 09:00,5.38,31.644,24.973,30.872
2005-06-09 10:00,5.42,31.636,24.963,30.893
2005-06-09 11:00,5.41,31.630,24.960,30.881
2005-06-09 12:00,5.40,31.635,24.964,30.880
2005-06-09 13:00,5.40,31.638,24.967,30.880
2005-06-09 14:00,5.40,31.638,24.967,30.880
2005-06-09 15:00,5.43,31.625,24.954,30.891
2005-06-09 16:00,5.39,31.639,24.968,30.876
2005-06-09 17:00,5.39,31.636,24.966,30.872
2005-06-09 18:00,5.36,31.658,24.988,30.861
2005-06-09 19:00,5.37,31.640,24.972,30.857
2005-06-09 20:00,5.65,31.607,24.914,31.061
2005-06-09 21:00,5.65,31.616,24.921,31.069
2005-06-09 22:00,5.42,31.619,24.950,30.878
2005-06-09 23:00,5.42,31.603,24.937,30.867
2005-06-10 00:00,5.45,31.607,24.937,30.895
2005-06-10 01:00,5.45,31.621,24.948,30.903
2005-06-10 02:00,5.51,31.601,24.925,30.941
2005-06-10 03:00,5.46,31.646,24.966,30.938
2005-06-10 04:00,5.60,31.607,24.919,31.021
2005-06-10 05:00,5.55,31.618,24.934,30.992
2005-06-10 06:00,5.66,31.582,24.893,31.049
2005-06-10 07:00,5.60,31.557,24.881,30.974
2005-06-10 08:00,5.52,31.562,24.893,30.915
2005-06-10 09:00,5.54,31.559,24.889,30.924
2005-06-10 10:00,5.53,31.542,24.876,30.904
2005-06-10 11:00,5.51,31.552,24.886,30.898
2005-06-10 12:00,5.51,31.552,24.886,30.898
2005-06-10 13:00,5.52,31.549,24.883,30.902
2005-06-10 14:00,5.52,31.542,24.877,30.899
2005-06-10 15:00,5.53,31.539,24.874,30.901
2005-06-10 16:00,5.55,31.529,24.864,30.906
2005-06-10 17:00,5.54,31.532,24.868,30.901
2005-06-10 18:00,5.58,31.501,24.837,30.912
2005-06-10 19:00,5.55,31.519,24.856,30.900
2005-06-10 20:00,5.56,31.510,24.847,30.903
2005-06-10 21:00,5.51,31.616,24.937,30.953
2005-06-10 22:00,5.52,31.574,24.903,30.920
2005-06-10 23:00,5.58,31.541,24.869,30.948
2005-06-11 00:00,5.69,31.569,24.879,31.058
2005-06-11 01:00,5.71,31.555,24.865,31.068
2005-06-11 02:00,5.93,31.659,24.922,31.342
2005-06-11 03:00,6.20,31.612,24.853,31.522
2005-06-11 04:00,6.45,31.686,24.879,31.802
2005-06-11 05:00,6.44,31.760,24.940,31.858
2005-06-11 06:00,7.03,31.861,24.943,32.453
2005-06-11 07:00,6.75,31.851,24.972,32.205
2005-06-11 08:00,5.80,31.829,25.072,31.382
2005-06-11 09:00,5.95,31.829,25.054,31.511
2005-06-11 10:00,5.74,31.855,25.099,31.360
2005-06-11 11:00,6.03,31.845,25.057,31.592
2005-06-11 12:00,6.09,31.816,25.027,31.617
2005-06-11 13:00,5.96,31.801,25.031,31.492
2005-06-11 14:00,5.75,31.827,25.076,31.343
2005-06-11 15:00,5.97,31.811,25.037,31.514
2005-06-11 16:00,5.97,31.820,25.045,31.517
2005-06-11 17:00,6.76,31.764,24.903,32.132
2005-06-11 18:00,6.41,31.786,24.963,31.860
2005-06-11 19:00,6.39,31.778,24.960,31.837
2005-06-11 20:00,6.47,31.769,24.942,31.899
2005-06-11 21:00,6.13,31.803,25.011,31.642
2005-06-11 22:00,6.03,31.802,25.023,31.553
2005-06-11 23:00,6.11,31.793,25.006,31.612
2005-06-12 00:00,6.37,31.795,24.975,31.837
2005-06-12 01:00,5.44,31.855,25.134,31.108
2005-06-12 02:00,5.39,31.869,25.150,31.080
2005-06-12 03:00,5.53,31.820,25.095,31.152
2005-06-12 04:00,7.86,31.705,24.707,33.015
2005-06-12 05:00,7.59,31.726,24.761,32.804
2005-06-12 06:00,6.58,31.782,24.940,31.998
2005-06-12 07:00,6.95,31.752,24.868,32.284
2005-06-12 08:00,7.29,31.738,24.811,32.560
2005-06-12 09:00,5.42,31.681,24.999,30.937
2005-06-12 10:00,5.46,31.687,24.999,30.973
2005-06-12 11:00,5.51,31.706,25.008,31.034
2005-06-12 12:00,5.16,31.808,25.128,30.831
2005-06-12 13:00,5.29,31.832,25.132,30.960
2005-06-12 14:00,5.37,31.820,25.113,31.018